Regional Weather Roundup
Issued by NWS San Angelo, TX

Home | Current Version | Previous Version | Text Only | Print | Product List | Glossary On
Versions: 1 2 3 4 5 6 7 8 9 10 11 12 13 14 15 16 17 18 19 20 21 22 23 24 25 26 27 28 29 30 31 32 33 34 35 36 37 38 39 40 41 42 43 44 45 46 47 48 49 50
000
ASUS44 KSJT 212110
RWRSJT
WEST CENTRAL TEXAS REGIONAL WEATHER ROUNDUP
NATIONAL WEATHER SERVICE SAN ANGELO TX
400 PM CDT SUN SEP 21 2014

NOTE: "FAIR" INDICATES FEW OR NO CLOUDS BELOW 12,000 FEET WITH NO
SIGNIFICANT WEATHER AND/OR OBSTRUCTIONS TO VISIBILITY.

TXZ049-054-064>066-071>073-076>078-098-099-113-114-127-128-139-140-
154-155-168>170-212200
...LOCATIONS ACROSS WEST CENTRAL TEXAS...

CITY           SKY/WX    TMP DP  RH WIND       PRES   REMARKS
SAN ANGELO     CLOUDY    84  67  56 NE12      30.06F
ABILENE        MOSUNNY   89  61  38 SE8       30.07F
DYESS AFB      MOSUNNY   87  56  34 E8        30.06F
JUNCTION       PTSUNNY   88  64  44 E13       30.04F
SWEETWATER     CLOUDY    79  67  66 S6        30.13F
BROWNWOOD      PTSUNNY   86  64  48 E3        30.06S
COLEMAN        PTCLDY    87  63  44 E7        30.07F
SONORA         MOSUNNY   84  64  51 E10       30.09F
OZONA          FAIR      82  64  54 SE10      30.09S
BRADY          SUNNY     86  63  45 E5        30.06F
$$

TEXAS PANHANDLE/OKLAHOMA PANHANDLE

CITY           SKY/WX    TMP DP  RH WIND       PRES   REMARKS
AMARILLO       TSTM      65  63  93 S21G48    30.22R VSB 1/4
BORGER         PTSUNNY   79  64  60 NE15G23   30.19F
CANADIAN       PTSUNNY   72  55  55 E12G20    30.20F
DALHART        PTSUNNY   80  60  50 E18G24    30.25F
DUMAS          MOCLDY    78  64  60 NE15      30.23F
GUYMON         NOT AVBL
HEREFORD       MOCLDY    82  65  58 E8        30.20F
PAMPA          PTCLDY    77  64  62 E16       30.22S
PERRYTON       SUNNY     83  48  29 E17       30.21F
$$

SOUTHERN PANHANDLE/SOUTH PLAINS/ROLLING PLAINS

CITY           SKY/WX    TMP DP  RH WIND       PRES   REMARKS
LUBBOCK        RAIN      69  66  90 SE10      30.20R
SNYDER         CLOUDY    76  69  77 CALM      30.13S
CHILDRESS      MOSUNNY   90  63  40 E12G18    30.10F
SEMINOLE       LGT RAIN  69  68  95 E7        30.18F
$$

PERMIAN BASIN

CITY           SKY/WX    TMP DP  RH WIND       PRES   REMARKS
MIDLAND        CLOUDY    71  67  87 E21       30.13S
ODESSA         CLOUDY    71  66  84 E16G23    30.14S
WINK           CLOUDY    76  69  79 E15       30.09S
$$

FAR WEST/SOUTHWEST MOUNTAINS/TRANS PECOS

CITY           SKY/WX    TMP DP  RH WIND       PRES   REMARKS
ALPINE         CLOUDY    72  65  78 NW3       30.20S VSB 1/2
DRYDEN           N/A     90  66  45 E16       30.02F
EL PASO        PTSUNNY   87  61  41 VRB7      30.07F
FORT STOCKTON  PTSUNNY   80  67  64 E13       30.08F
GUADALUPE PASS MOSUNNY   72  65  78 NE20        N/A
MARFA          PTSUNNY   77  64  65 SE9       30.18F
PECOS          CLOUDY    83  66  57 E15       30.06F
$$

DALLAS/FORT WORTH METROPLEX

CITY           SKY/WX    TMP DP  RH WIND       PRES   REMARKS
DFW AIRPORT    PTSUNNY   92  61  35 VRB3      30.02F
FTW MEACHAM    SUNNY     94  60  32 E10       30.02F
DAL-EXECUTIVE  SUNNY     94  58  29 E6        30.02F
GRAND PRAIRIE  SUNNY     93  55  27 MISG      30.03F
ADDISON        NOT AVBL
MESQUITE       PTCLDY    90  57  33 N5        30.01F
LANCASTER      CLEAR     93  58  31 E6        30.02F
$$

NORTH CENTRAL TEXAS

CITY           SKY/WX    TMP DP  RH WIND       PRES   REMARKS
SHRMAN/DENISON CLEAR     91  63  39 NE7       30.05F
GAINESVILLE    MOSUNNY   90  64  41 E8        30.06F
BRIDGEPORT     CLEAR     91  56  30 NE7       30.05F
DENTON         SUNNY     92  59  33 E7        30.03F
WAXAHACHIE     CLEAR     93  52  25 E6        30.03F
GRANBURY       CLEAR     94  59  31 E5        30.03F
$$

WESTERN NORTH TEXAS

CITY           SKY/WX    TMP DP  RH WIND       PRES   REMARKS
WICHITA FALLS  PTSUNNY   92  63  38 E10       30.04F
VERNON         CLEAR     94  58  30 E7        30.06F
BRECKENRIDGE   MOCLDY    93  56  28 NE7       30.04F
COMANCHE       MOSUNNY   90  61  37 E6        30.06F
$$

CENTRAL AND SOUTH CENTRAL TEXAS

CITY           SKY/WX    TMP DP  RH WIND       PRES   REMARKS
AUSTIN/BERGSTM MOSUNNY   89  67  47 E12G20    30.00F
WACO           MOSUNNY   92  62  36 NE5       30.01F
HILLSBORO      CLEAR     91  58  33 CALM      30.02F
TEMPLE         SUNNY     91  63  38 E8        30.02F
KILLEEN-GRAY   PTSUNNY   90  63  40 E8        30.02F
FORT HOOD      MOSUNNY   92  64  39 N8        30.03F
GEORGETOWN     MOSUNNY   91  64  40 NE12      30.02F
LAGO VISTA     FAIR      88  63  43 E5        30.04F
SAN MARCOS     MOSUNNY   91  64  40 NE9G18    29.99F
NEW BRAUNFELS  MOSUNNY   93  66  40 E16       29.98F
RANDOLPH AFB   MOSUNNY   91  65  42 E13       29.99F
SAN ANTONIO    MOSUNNY   94  65  38 E12       29.99F
STINSON        MOSUNNY   94  66  39 NE9       29.95F
PLEASANTON     NOT AVBL
LA GRANGE      MOSUNNY   91  70  50 E8        29.98S
GIDDINGS       CLEAR     89  64  43 E10       30.04F
$$

EAST TEXAS

CITY           SKY/WX    TMP DP  RH WIND       PRES   REMARKS
PARIS          SUNNY     90  64  43 N5        30.04F
CLARKSVILLE    NOT AVBL
TYLER          SUNNY     92  63  38 NE5       30.02F
LONGVIEW       MOSUNNY   94  62  34 N5        29.99F
PALESTINE      PTCLDY    91  63  39 CALM      30.02F
NACOGDOCHES    MOSUNNY   91  64  40 N5        30.01S
$$

TEXAS HILL COUNTRY AND EDWARDS PLATEAU

CITY           SKY/WX    TMP DP  RH WIND       PRES   REMARKS
LLANO          PTCLDY    91  66  43 E8        30.06F
HORSESHOE BAY  MOCLDY    90  63  40 E7        30.03F
KERRVILLE      MOSUNNY   87  62  43 E7        30.04F
FREDERICKSBRG  MOSUNNY   86  64  47 E10       30.05F
ROCKSPRINGS    MOCLDY    81  66  61 E3        30.07F
HONDO          PTSUNNY   93  63  36 E12       29.99F
UVALDE         PTCLDY    91  70  50 E13G18    29.98F
DEL RIO        MOSUNNY   90  68  48 E8        29.96F
$$

SOUTHEAST TEXAS

CITY           SKY/WX    TMP DP  RH WIND       PRES   REMARKS
COLLEGE STN    SUNNY     89  66  46 N7        30.00F
CALDWELL       PTCLDY    88  64  45 CALM      30.04F
CROCKETT         N/A     91  70  49 N3        30.04F
BRENHAM        SUNNY     90  65  42 NE5       30.01F
HUNTSVILLE     MOSUNNY   90  65  43 E3        30.01F
CONROE         MOSUNNY   89  65  44 SE5       30.00F
HOUSTON BUSH   MOSUNNY   90  68  48 VRB3      29.98F
HOUSTON HOBBY  MOSUNNY   91  69  48 NE9G24    29.97F
PERLAND        SUNNY     90  68  48 E8        29.99F
WHARTON        CLEAR     89  67  47 NE9       29.98S
$$

THE UPPER TEXAS COAST

CITY           SKY/WX    TMP DP  RH WIND       PRES   REMARKS
ORANGE         PTCLDY    88  67  48 N7        30.00F
PORT ARTHUR    SUNNY     90  69  50 NE9       29.98F
GALVESTON      SUNNY     86  70  58 E13       29.99F
ANGLETON       SUNNY     87  69  54 E10G18    29.98F
BAY CITY       PTCLDY    90  71  52 E13       29.97F
$$

TEXAS COASTAL BEND, RIO GRANDE PLAINS DEEP SOUTH TEXAS

CITY           SKY/WX    TMP DP  RH WIND       PRES   REMARKS
VICTORIA       SUNNY     92  68  45 E12       29.96F
BEEVILLE       FAIR      92  66  41 E14G22    29.95S
ROCKPORT       SUNNY     87  72  60 E16       29.95S
PORT ARANSAS   MOCLDY    85  76  74 E16       29.94F
PORT LAVACA    PTCLDY    87  74  65 SE14      29.95F
CORPUS CHRISTI PTSUNNY   87  76  69 E20       29.94F
KINGSVILLE NAS PTSUNNY   84  77  79 E17G25    29.94S
COTULLA        LGT RAIN  77  74  90 CALM      29.97F
LAREDO         MOSUNNY   85  74  69 E9        29.97F
BROWNSVILLE    PTSUNNY   85  77  77 NE8       29.90F
PORT ISABEL    PTSUNNY   86  75  69 NE12      29.89F
HEBBRONVILLE     N/A     87  72  60 E17G23    29.95F
MCALLEN        MOSUNNY   87  75  67 NE14G21   29.90F
WESLACO        PTSUNNY   89  74  61 NE14      29.89F
FALFURRIAS     CLOUDY   N/A N/A N/A E16G25    29.92F
EDINBURG       LGT RAIN  82  77  86 E7        29.91F
$$


USA.gov is the U.S. government's official web portal to all federal, state and local government web resources and services.